ONEWEB-0201 (48241 NORAD) Tracking and Keplerian Element Data

This shows tracking and keplerian element data for the satellite.

Feedback or suggestion? Click here.




ElementValue
Catalog48241
NameONEWEB-0201
Epoch Orbit184
Epoch Day136.91668981
Epoch Year2021
RAAN305.6854
Inclination87.4223
Eccentricity0.0011344
Argument of Perigee166.6304
Mean Anonmoly43.4855
Mean Motion15.37071082
Decay Rate-0.01299915
L11 48241U 21031AH 21136.91668981 -.01299915 00000-0 -39705-1 0 9990
L22 48241 87.4223 305.6854 0011344 166.6304 43.4855 15.37071082 1843

Live tracking and technical data element details for ONEWEB-0201 (NORAD 48241). ONEWEB-0201 can be tracked NOW for your location showing map with azimuth and elevation plus other details from your city location.

Track the satellite on the map from your city or location and see movement details for azimuth, elevation, latitude, longitude, range, height, and movement on the map or in text.







IsCatalogInMostPopularTable: catalog: 48241, numindb: 7
Update: records affected: 1



GetName: 48241 ONEWEB-0201

Hit Count: updated at: Mon, 17 May 2021 15:17:33 GMT